When you browse on this site, cookies collect data to enhance your experience and personalize the content and advertising you see.
Visit our Privacy Policy to learn more. By continuing to use the site, you agree to this use of cookies and data.
  • In United Kingdom
  • List of Countries
  • For 7 days
  • Water Temperature
  • Satellite Maps
  • Weather Map
  • Weather Widgets
  • user-avatar
    Login

    Hourly Weather Zaranj

    Today, 22 May, Wednesday

    Time Temperature Precipitation Wind Pressure Humidity
    00:00 +33°C° 0.1 mm 3 mps 716 mmHg 35%
    01:00 +32°C° 0.1 mm 2 mps 716 mmHg 35%
    02:00 +30°C° 0 mm 4 mps 716 mmHg 39%
    03:00 +29°C° 0 mm 6 mps 715 mmHg 42%
    04:00 +27°C° 0 mm 9 mps 715 mmHg 48%
    05:00 +28°C° 0 mm 9 mps 716 mmHg 46%
    06:00 +28°C° 0 mm 8 mps 716 mmHg 44%
    07:00 +28°C° 0 mm 8 mps 716 mmHg 41%
    08:00 +30°C° 0 mm 7 mps 716 mmHg 38%
    09:00 +32°C° 0 mm 7 mps 716 mmHg 34%
    10:00 +32°C° 0 mm 7 mps 716 mmHg 33%
    11:00 +33°C° 0 mm 7 mps 716 mmHg 31%
    12:00 +34°C° 0 mm 7 mps 716 mmHg 29%
    13:00 +35°C° 0 mm 7 mps 715 mmHg 27%
    14:00 +35°C° 0.3 mm 7 mps 715 mmHg 26%
    15:00 +35°C° 0.3 mm 6 mps 715 mmHg 26%
    16:00 +33°C° 0 mm 8 mps 715 mmHg 29%
    17:00 +33°C° 0.3 mm 8 mps 715 mmHg 29%
    18:00 +32°C° 0.3 mm 8 mps 715 mmHg 29%
    19:00 +32°C° 0.3 mm 8 mps 715 mmHg 29%
    20:00 +31°C° 0 mm 9 mps 715 mmHg 30%
    21:00 +29°C° 0 mm 9 mps 715 mmHg 31%
    22:00 +28°C° 0 mm 10 mps 716 mmHg 31%
    23:00 +27°C° 0 mm 10 mps 716 mmHg 32%

    Tomorrow, 23 May, Thursday

    Time Temperature Precipitation Wind Pressure Humidity
    00:00 +26°C° 0 mm 10 mps 715 mmHg 34%
    01:00 +24°C° 0 mm 10 mps 715 mmHg 35%
    02:00 +24°C° 0 mm 10 mps 715 mmHg 36%
    03:00 +23°C° 0 mm 10 mps 715 mmHg 37%
    04:00 +22°C° 0 mm 9 mps 715 mmHg 39%
    05:00 +23°C° 0 mm 9 mps 716 mmHg 38%
    06:00 +23°C° 0 mm 9 mps 716 mmHg 38%
    07:00 +23°C° 0 mm 9 mps 716 mmHg 37%
    08:00 +24°C° 0 mm 9 mps 716 mmHg 35%
    09:00 +26°C° 0 mm 9 mps 716 mmHg 32%
    10:00 +27°C° 0 mm 9 mps 717 mmHg 29%
    11:00 +29°C° 0 mm 8 mps 716 mmHg 27%
    12:00 +30°C° 0 mm 7 mps 716 mmHg 25%
    13:00 +32°C° 0 mm 6 mps 716 mmHg 23%
    14:00 +32°C° 0 mm 5 mps 716 mmHg 22%
    15:00 +33°C° 0 mm 5 mps 715 mmHg 22%
    16:00 +33°C° 0 mm 4 mps 715 mmHg 21%
    17:00 +33°C° 0 mm 5 mps 715 mmHg 22%
    18:00 +32°C° 0 mm 7 mps 715 mmHg 22%
    19:00 +32°C° 0 mm 8 mps 715 mmHg 23%
    20:00 +31°C° 0 mm 8 mps 715 mmHg 24%
    21:00 +29°C° 0 mm 8 mps 716 mmHg 25%
    22:00 +28°C° 0 mm 9 mps 716 mmHg 25%
    23:00 +28°C° 0 mm 8 mps 716 mmHg 26%

    Day after tomorrow, 24 May, Friday

    Time Temperature Precipitation Wind Pressure Humidity
    00:00 +27°C° 0 mm 8 mps 716 mmHg 26%
    01:00 +27°C° 0 mm 8 mps 716 mmHg 26%
    02:00 +26°C° 0 mm 8 mps 716 mmHg 27%
    03:00 +26°C° 0 mm 7 mps 716 mmHg 28%
    04:00 +24°C° 0 mm 6 mps 716 mmHg 29%
    05:00 +26°C° 0 mm 6 mps 717 mmHg 28%
    06:00 +26°C° 0 mm 7 mps 717 mmHg 28%
    07:00 +27°C° 0 mm 7 mps 718 mmHg 27%
    08:00 +28°C° 0 mm 6 mps 718 mmHg 25%
    09:00 +29°C° 0 mm 6 mps 718 mmHg 23%
    10:00 +32°C° 0 mm 6 mps 718 mmHg 21%
    11:00 +33°C° 0 mm 6 mps 718 mmHg 19%
    12:00 +34°C° 0 mm 5 mps 718 mmHg 17%
    13:00 +35°C° 0 mm 5 mps 717 mmHg 16%
    14:00 +36°C° 0 mm 5 mps 717 mmHg 15%
    15:00 +36°C° 0 mm 5 mps 717 mmHg 14%
    16:00 +37°C° 0 mm 5 mps 716 mmHg 13%
    17:00 +36°C° 0 mm 4 mps 716 mmHg 14%
    18:00 +36°C° 0 mm 3 mps 716 mmHg 15%
    19:00 +35°C° 0 mm 3 mps 716 mmHg 16%
    20:00 +35°C° 0 mm 3 mps 717 mmHg 17%
    21:00 +34°C° 0 mm 3 mps 717 mmHg 19%
    22:00 +33°C° 0 mm 4 mps 717 mmHg 20%
    23:00 +33°C° 0 mm 4 mps 717 mmHg 21%

    25 May, Saturday

    Time Temperature Precipitation Wind Pressure Humidity
    00:00 +32°C° 0 mm 4 mps 717 mmHg 22%
    01:00 +32°C° 0 mm 4 mps 717 mmHg 23%
    02:00 +30°C° 0 mm 4 mps 717 mmHg 24%
    03:00 +30°C° 0 mm 4 mps 717 mmHg 25%
    04:00 +30°C° 0 mm 4 mps 716 mmHg 25%
    05:00 +30°C° 0 mm 5 mps 717 mmHg 24%
    06:00 +32°C° 0 mm 6 mps 717 mmHg 22%
    07:00 +33°C° 0 mm 6 mps 717 mmHg 21%
    08:00 +34°C° 0 mm 7 mps 718 mmHg 19%
    09:00 +35°C° 0 mm 8 mps 718 mmHg 17%
    10:00 +38°C° 0 mm 8 mps 718 mmHg 16%
    11:00 +39°C° 0 mm 9 mps 718 mmHg 15%
    12:00 +40°C° 0 mm 9 mps 717 mmHg 14%
    13:00 +42°C° 0 mm 9 mps 717 mmHg 12%
    14:00 +42°C° 0 mm 9 mps 716 mmHg 12%
    15:00 +42°C° 0 mm 9 mps 716 mmHg 12%
    16:00 +42°C° 0 mm 9 mps 715 mmHg 11%
    17:00 +40°C° 0 mm 9 mps 715 mmHg 12%
    18:00 +39°C° 0 mm 8 mps 715 mmHg 13%
    19:00 +39°C° 0 mm 8 mps 715 mmHg 14%
    20:00 +38°C° 0 mm 8 mps 716 mmHg 16%
    21:00 +37°C° 0 mm 8 mps 716 mmHg 17%
    22:00 +35°C° 0 mm 8 mps 716 mmHg 18%
    23:00 +34°C° 0 mm 8 mps 716 mmHg 20%

    26 May, Sunday

    Time Temperature Precipitation Wind Pressure Humidity
    00:00 +34°C° 0 mm 7 mps 716 mmHg 21%
    01:00 +33°C° 0 mm 7 mps 715 mmHg 22%
    02:00 +32°C° 0 mm 8 mps 715 mmHg 23%
    03:00 +32°C° 0 mm 8 mps 715 mmHg 25%
    04:00 +31°C° 0 mm 9 mps 715 mmHg 26%
    05:00 +31°C° 0 mm 10 mps 716 mmHg 24%
    06:00 +32°C° 0 mm 11 mps 716 mmHg 22%
    07:00 +32°C° 0 mm 12 mps 716 mmHg 20%
    08:00 +34°C° 0 mm 12 mps 716 mmHg 19%
    09:00 +36°C° 0 mm 13 mps 717 mmHg 18%
    10:00 +37°C° 0 mm 13 mps 717 mmHg 16%
    11:00 +38°C° 0 mm 13 mps 716 mmHg 15%
    12:00 +39°C° 0 mm 13 mps 716 mmHg 13%
    13:00 +41°C° 0 mm 12 mps 716 mmHg 12%
    14:00 +41°C° 0 mm 12 mps 715 mmHg 11%
    15:00 +41°C° 0 mm 12 mps 715 mmHg 10%
    16:00 +41°C° 0 mm 12 mps 714 mmHg 9%
    17:00 +39°C° 0 mm 11 mps 714 mmHg 9%
    18:00 +38°C° 0 mm 10 mps 714 mmHg 10%
    19:00 +37°C° 0 mm 10 mps 714 mmHg 11%
    20:00 +36°C° 0 mm 10 mps 715 mmHg 12%
    21:00 +36°C° 0 mm 10 mps 715 mmHg 13%
    22:00 +34°C° 0 mm 11 mps 715 mmHg 14%
    23:00 +33°C° 0 mm 10 mps 715 mmHg 15%

    27 May, Monday

    Time Temperature Precipitation Wind Pressure Humidity
    00:00 +32°C° 0 mm 10 mps 714 mmHg 16%
    01:00 +32°C° 0 mm 9 mps 714 mmHg 18%
    02:00 +31°C° 0 mm 9 mps 714 mmHg 18%
    03:00 +31°C° 0 mm 9 mps 714 mmHg 19%
    04:00 +29°C° 0 mm 8 mps 714 mmHg 19%
    05:00 +31°C° 0 mm 9 mps 714 mmHg 18%
    06:00 +31°C° 0 mm 10 mps 715 mmHg 17%
    07:00 +32°C° 0 mm 11 mps 715 mmHg 16%
    08:00 +33°C° 0 mm 11 mps 716 mmHg 14%
    09:00 +36°C° 0 mm 11 mps 716 mmHg 12%
    10:00 +38°C° 0 mm 11 mps 716 mmHg 10%
    11:00 +39°C° 0 mm 11 mps 716 mmHg 9%
    12:00 +40°C° 0 mm 10 mps 715 mmHg 8%
    13:00 +42°C° 0 mm 10 mps 715 mmHg 7%
    14:00 +42°C° 0 mm 9 mps 715 mmHg 7%
    15:00 +43°C° 0 mm 9 mps 714 mmHg 6%
    16:00 +43°C° 0 mm 9 mps 714 mmHg 6%
    17:00 +42°C° 0 mm 9 mps 714 mmHg 7%
    18:00 +40°C° 0 mm 8 mps 714 mmHg 8%
    19:00 +39°C° 0 mm 8 mps 714 mmHg 9%
    20:00 +38°C° 0 mm 8 mps 714 mmHg 10%
    21:00 +37°C° 0 mm 8 mps 714 mmHg 11%
    22:00 +35°C° 0 mm 9 mps 715 mmHg 12%
    23:00 +34°C° 0 mm 9 mps 714 mmHg 13%
    Show more